CAPE 3
1 47309U 21002A 22335.32923309 .00012801 00000-0 45445-3 0 9991
2 47309 60.6816 95.3009 0041828 78.2268 282.3509 15.28602340103929
AO-109
1 47311U 21002C 22335.34504664 .00011253 00000-0 40217-3 0 9997
2 47311 60.6839 92.6571 0038376 76.9403 283.5966 15.28627248103947
MiTEE 1
1 47314U 21002F 22335.72891883 .00028994 00000-0 76220-3 0 9997
2 47314 60.6797 78.2682 0034789 69.7713 290.7116 15.37864370104244
ExoCube 2
1 47319U 21002L 22335.32906425 .00011003 00000-0 39911-3 0 9996
2 47319 60.6825 94.1948 0039552 78.2549 282.2974 15.28118731103888
UVSQ-SAT
1 47438U 21006AB 22335.79531777 .00007018 00000-0 34825-3 0 9997
2 47438 97.4167 31.3914 0012571 58.3571 301.8888 15.17943133102644
YUSAT 1
1 47439U 21006AC 22335.43445402 .00008503 00000-0 41091-3 0 9991
2 47439 97.4175 31.3025 0012191 59.1980 301.0453 15.18809313102606
SOMP 2b
1 47445U 21006AJ 22335.83644806 .00007342 00000-0 36936-3 0 9993
2 47445 97.4141 30.9408 0012397 62.2347 298.0142 15.17450890102630
IDEASSat
1 47458U 21006AX 22335.77066444 .00007027 00000-0 35548-3 0 9994
2 47458 97.4228 31.5259 0011538 61.5974 298.6421 15.17279629102618
CubeSX-Sirius-HSE
1 47951U 21022V 22335.76665926 .00004734 00000-0 30184-3 0 9992
2 47951 97.5138 231.7522 0019198 297.6947 147.0073 15.09040575 93218
CubeSX-HSE
1 47952U 21022W 22335.81500241 .00004669 00000-0 29733-3 0 9992
2 47952 97.5129 231.8287 0019086 296.5954 153.7070 15.09094532 93224
KSU-Cubesat
1 47954U 21022Y 22335.66404305 .00006378 00000-0 40056-3 0 9991
2 47954 97.5147 231.8660 0018509 296.2376 63.6950 15.09478278 92931
GRBAlpha
1 47959U 21022AD 22335.87087971 .00005009 00000-0 31831-3 0 9996
2 47959 97.5131 231.9381 0019006 296.9431 125.7939 15.09138730 92058
Orbicraft-Zorkiy
1 47960U 21022AE 22335.76187303 .00005102 00000-0 32174-3 0 9991
2 47960 97.5158 232.0550 0018780 297.8217 147.9690 15.09420036 92737
STECCO
1 47962U 21022AG 22335.85067503 .00008763 00000-0 50932-3 0 9990
2 47962 97.5130 233.3305 0013322 289.7253 134.7724 15.12252173 92144
DO-111
1 47963U 21022AH 22335.18670872 .00023903 00000-0 10992-2 0 9990
2 47963 97.5168 235.1118 0012015 283.8906 76.0993 15.20282818 92218
MO-110
1 47964U 21022AJ 22335.50687525 .00008813 00000-0 50520-3 0 9995
2 47964 97.5149 233.3719 0015602 286.0625 73.8888 15.12718078 92113
FEES
1 48082U 21022AL 22335.20349022 .00013342 00000-0 73081-3 0 9991
2 48082 97.5152 233.2374 0011784 285.3617 74.6313 15.14279942 91783
CSS
1 48274U 21035A 22335.93336471 -.00035036 00000-0 -43237-3 0 9998
2 48274 41.4722 277.4472 0006607 356.1779 86.6181 15.59147870 90991
TUBIN
1 48900U 21059X 22335.87070212 .00004248 00000-0 22857-3 0 9995
2 48900 97.5754 104.2078 0008761 241.7986 274.0451 15.15366269 79251
IT-SPINS
1 49017U 21013G 22335.66958011 .00011369 00000-0 39334-3 0 9994
2 49017 51.5972 317.4830 0007489 333.5882 26.4716 15.30320894 79353
LEDSAT
1 49069U 21073D 22335.78414092 .00004058 00000-0 25037-3 0 9998
2 49069 97.5087 45.3502 0027760 81.6413 278.7962 15.10157552 71078
CUTE
1 49263U 21088D 22335.61787089 .00004525 00000-0 32548-3 0 9995
2 49263 97.5700 40.1810 0018886 212.9275 147.0776 15.04591630 64542
TeikyoSat 4
1 49396U 21102B 22335.43455487 .00001713 00000-0 13766-3 0 9990
2 49396 97.5399 28.3097 0017815 52.9199 307.3650 15.01193410 58092
Z-Sat
1 49399U 21102E 22335.81986151 .00001648 00000-0 12559-3 0 9998
2 49399 97.5172 29.8732 0023379 26.3662 333.8748 15.03201363 58224
KOSEN 1
1 49402U 21102H 22335.62368702 .00002388 00000-0 17430-3 0 9993
2 49402 97.5098 29.9321 0022217 16.8561 343.3398 15.04436363 58232
HO-113
1 50466U 21131B 22335.80051848 .00000189 00000-0 76445-4 0 9996
2 50466 98.5695 52.8764 0004559 24.6423 335.4982 14.38584348 48971
Tevel
1 50999U 22002R 22335.90801941 .00008642 00000-0 43234-3 0 9994
2 50999 97.4613 40.3754 0010450 190.6320 285.0714 15.17615366 48794
Grizu-263a
1 51025U 22002AT 22335.47106862 .00020278 00000-0 88614-3 0 9997
2 51025 97.4797 41.6403 0011201 195.9927 164.0957 15.22073335 48794
NO-116
1 51031U 22002AZ 22335.14683680 .00012028 00000-0 56664-3 0 9990
2 51031 97.4748 40.6569 0011794 198.5588 161.5218 15.19602484 48711
IRIS-A
1 51044U 22002BN 22335.60171359 .00006021 00000-0 32530-3 0 9992
2 51044 97.4637 39.4380 0008473 197.6260 162.4680 15.15044265 48701
DELFI-PQ
1 51074U 22002CU 22335.15377606 .00013649 00000-0 60874-3 0 9994
2 51074 97.4882 41.9506 0011673 228.7641 131.2590 15.21459893 48763
SO-115
1 51080U 22002DA 22335.46165701 .00009624 00000-0 45521-3 0 9996
2 51080 97.4896 41.9027 0011671 229.1734 130.8489 15.19526132 48781
SO-114
1 51081U 22002DB 22335.46159646 .00009895 00000-0 46762-3 0 9996
2 51081 97.4889 41.8680 0011951 228.8909 131.1294 15.19545884 48782
OreSat0
1 52017U 22026K 22335.74022219 .00008470 00000-0 42171-3 0 9996
2 52017 97.5090 333.7419 0027843 56.0648 304.3227 15.17494602 39530
Planetum 1
1 52738U 22057G 22335.26719745 .00006679 00000-0 37074-3 0 9999
2 52738 97.5255 87.5197 0006973 322.3268 37.7475 15.14049149 28650
Foresail-1
1 52766U 22057AL 22335.86570370 .00004768 00000-0 25929-3 0 9998
2 52766 97.5364 88.6976 0011883 297.1631 158.8497 15.14899595 28767
SNUGLITE 2
1 52899U 22065F 22335.01195822 .00000651 00000-0 14955-3 0 9990
2 52899 98.0400 120.8239 0009136 113.0285 247.1927 14.58576742 21970
CTIM
1 52950U 22074G 22335.80303967 .00013358 00000-0 49587-3 0 9993
2 52950 45.0125 8.1673 0006709 37.0895 323.0463 15.27574417 23288
IO-117
1 53106U 22080B 22334.45194177 -.00000003 00000-0 00000-0 0 9993
2 53106 70.1746 28.7668 0008951 229.3699 130.6183 6.42557462 8980
AstroBioCubeSat
1 53107U 22080C 22335.48380743 -.00000003 00000-0 00000+0 0 9993
2 53107 70.1708 28.4998 0013747 221.0196 138.9480 6.42110587 8942
CELESTA
1 53111U 22080G 22310.17474584 -.00000003 00000-0 00000+0 0 9994
2 53111 70.4223 37.2580 0024959 243.8956 115.9136 6.43203861 7301
RS4S
1 53306U 98067TZ 22335.72972970 .00124802 00000-0 10514-2 0 9995
2 53306 51.6353 219.5992 0008591 153.5362 206.6075 15.68884643 20749
RS3S
1 53308U 98067TT 22335.74138107 .00116225 00000-0 10046-2 0 9995
2 53308 51.6352 219.6733 0008454 152.8183 207.3258 15.68293728 20801
RS1S
1 53309U 98067TU 22335.78483593 .00120925 00000-0 10167-2 0 9998
2 53309 51.6346 219.2066 0008943 156.7822 203.3581 15.68944333 20761
RS5S
1 53310U 98067TV 22335.74020967 .00114418 00000-0 98966-3 0 9992
2 53310 51.6353 219.6645 0008632 154.9137 205.2281 15.68282316 20788
RS6S
1 53311U 98067TW 22335.82733129 .00128869 00000-0 10511-2 0 9997
2 53311 51.6346 218.7389 0008517 153.4339 206.7096 15.69653905 20828
RS9S
1 53312U 98067TX 22335.78722741 .00123260 00000-0 10499-2 0 9996
2 53312 51.6354 219.2296 0008983 156.8623 203.2779 15.68618356 20753
RS12S
1 53313U 98067TY 22335.78289853 .00119400 00000-0 10101-2 0 9990
2 53313 51.6356 219.2016 0008563 158.2973 201.8388 15.68804097 20809
JAGSAT
1 53771U 98067UJ 22335.81151556 .00133925 00000-0 11799-2 0 9992
2 53771 51.6351 220.8967 0009761 169.1248 190.9961 15.67743247 13481
